View from above orbital plane
|
View from above satellite
|
Ground track
|
The orbit data is extracted from the following two-line orbital elements,
1 19120U 88039B 21061.50554450 -.00000043 00000-0 23274-5 0 9990
2 19120 71.0175 343.2463 0024287 271.2508 88.5835 14.19219130698538
Epoch (UTC): | 02 March 2021 12:07:59 |
Eccentricity: | 0.0024287 |
inclination: | 71.0175° |
perigee height: | 810 km |
apogee height: | 845 km |
right ascension of ascending node: | 343.2463° |
argument of perigee: | 271.2508° |
revolutions per day: | 14.19219130 |
mean anomaly at epoch: | 88.5835° |
orbit number at epoch: | 69853 |
The dashed part of the orbit path shows where the satellite is in the earth's shadow,
|
|